Tracking 20083 objects as of 8-Dec-2019
HD Live streaming from Space Station
objects crossing your sky now

FLOCK 3P 86

Track FLOCK 3P 86 now!
10-day predictions
FLOCK 3P 86 is classified as:


NORAD ID: 41985
Int'l Code: 2017-008AP
Perigee: 491.4 km
Apogee: 499.6 km
Inclination: 97.4 °
Period: 94.4 minutes
Semi major axis: 6866 km
RCS: Unknown
Launch date: February 15, 2017
Source: United States (US)
Launch site: SRIHARIKOTA (SRI)
aabbcc
Your satellite tracking list
Your tracking list is empty




NASA's NSSDC Master Catalog

Two Line Element Set (TLE):
1 41985U 17008AP  19341.72519461  .00001273  00000-0  52625-4 0  9993
2 41985  97.3923  47.2536 0005999 256.4917 103.5653 15.25810919156023
Source of the keplerian elements: AFSPC